Location: Le Petit-Vavre
(46.5081°N, 1.5239°E)
Time: 20:49:54
(UTC+00:00)

BREEZE-M DEB (TANK) - Pass Details

Date: 03 March 2021
Orbit: 308 x 15402 km, 49.5° (Epoch: 20 April)

Event Time Altitude Azimuth Distance (km) Brightness Sun altitude
Rises 19:31:52 0° 283° (WNW) 2,080 6.9 -19.5°
Reaches altitude 10° 19:33:16 10° 289° (WNW) 1,383 5.6 -19.7°
Maximum altitude 19:35:49 56° 10° (N) 653 2.6 -20.1°
Enters shadow 19:36:49 42° 62° (ENE) 909 3.0 -20.3°
